Вернуться в каталог

COSMOS 249 DEB

АктивенLEO
NORAD 3609·DEBRIS·🇷🇺 Russia

Запущен Oct 20, 1968 с Baikonur Cosmodrome

Loading…

Ближайшие Пролёты (ближайшие 24 часа)

TLE

СвежийSource: Space-Track

Эпоха: Sep 14, 2026, 11:19 UTC

1 03609U 68091AB  26257.47174452  .00000639  00000-0  14289-3 0  9993
2 03609  62.2714 263.0000 0725746 156.2823 207.3516 13.66575739717091

Отслеживайте COSMOS 249 DEB в реальном времени с AllMySat

Download on the App Store